2017-033B

Last updated on Sun Jun 18 2017 00:15:07 GMT+0000 (Coordinated Universal Time)

1 42757U 17033B 17168.09886509 .06262002 12506-4 34767-3 0 9993 2 42757 51.6494 37.7492 0006812 61.5653 75.3695 16.42037569 436

Satellite not in orbit